Kalispell, MT

3:00 PM MDT on August 22, 2017 (GMT -0600)
Glacier Park International

Weather History for KGPI - August, 2013

Change the Weather History Date:

Thursday, August 1, 2013

  Actual Average Record
Temperature  
Mean Temperature 66 °F 67 °F  
Max Temperature 76 °F 84 °F 101 °F (2015)
Min Temperature 55 °F 49 °F 37 °F (1953)
Degree Days  
Heating Degree Days 0 2  
Month to date heating degree days 0 2  
Since 1 June heating degree days 205 295  
Since 1 July heating degree days 19 79  
Cooling Degree Days 1 3  
Month to date cooling degree days 1 3  
Year to date cooling degree days 142 86  
Since 1 June cooling degree days 142 83  
Growing Degree Days 16 (Base 50)    
Moisture  
Dew Point 52 °F    
Average Humidity 64    
Maximum Humidity 90    
Minimum Humidity 38    
Precipitation  
Precipitation 0.01 in 0.03 in 1.50 in (1948)
Month to date precipitation 0.01 0.03  
Year to date precipitation 9.33 10.65  
Snow  
Snow 0.00 in - - ()
Month to date snowfall 0.0  
Year to date snowfall 10.1  
Since 1 July snowfall 0.0  
Snow Depth 0.00 in    
Sea Level Pressure  
Sea Level Pressure 29.94 in    
Wind  
Wind Speed 6 mph (NE)    
Max Wind Speed 18 mph    
Max Gust Speed 24 mph    
Visibility 10 miles    
Events Rain    
T = Trace of Precipitation, MM = Missing Value Source: NWS Daily Summary

Daily Weather History Graph

Daily Weather History Graph

Search for Another Location

Airport or City:

Trip Planner

Search our weather history database for the weather conditions in past years. The results will help you decide how hot, cold, wet, or windy it might be!

Date:

Astronomy

Aug. 01, 2013 Rise Set
Actual Time 6:12 AM MDT 9:13 PM MDT
Civil Twilight 5:35 AM MDT 9:49 PM MDT
Nautical Twilight 4:48 AM MDT 10:36 PM MDT
Astronomical Twilight 3:49 AM MDT 11:34 PM MDT
Moon 1:49 AM MDT (8/1) 5:28 PM MDT (8/1)
Length of Visible Light 16h 13m
Length of Day
15h 00m
Waning Crescent, 23% of the Moon is Illuminated
Aug 1
Waning Crescent
Aug 6
New
Aug 14
First Quarter
Aug 20
Full
Aug 28
Last Quarter

Hourly Weather History & Observations

Time (MDT) Temp. Dew Point Humidity Pressure Visibility Wind Dir Wind Speed Gust Speed Precip Events Conditions
12:55 AM 68.0 °F 50.0 °F 52% 29.94 in 10.0 mi NNE 10.4 mph - 0.00 in   Smoke
1:55 AM 69.1 °F 48.0 °F 47% 29.96 in 10.0 mi NNW 6.9 mph - N/A   Smoke
2:55 AM 69.1 °F 48.0 °F 47% 29.96 in 10.0 mi NNE 5.8 mph - 0.00 in Rain Light Rain
3:55 AM 62.1 °F 50.0 °F 65% 29.97 in 10.0 mi SSE 11.5 mph - 0.00 in   Smoke
4:55 AM 61.0 °F 48.9 °F 64% 29.96 in 10.0 mi North 4.6 mph - N/A   Smoke
5:55 AM 57.0 °F 48.0 °F 72% 29.97 in 10.0 mi Calm Calm - N/A   Smoke
6:55 AM 57.0 °F 48.0 °F 72% 29.95 in 10.0 mi NNE 8.1 mph - N/A   Smoke
7:55 AM 70.0 °F 48.0 °F 46% 29.93 in 10.0 mi NE 19.6 mph 24.2 mph N/A   Clear
8:55 AM 72.0 °F 46.9 °F 41% 29.94 in 10.0 mi NE 9.2 mph - N/A   Clear
9:55 AM 72.0 °F 48.9 °F 44% 29.92 in 10.0 mi NE 12.7 mph - N/A   Clear
10:55 AM 72.0 °F 48.9 °F 44% 29.93 in 10.0 mi ENE 9.2 mph - N/A   Clear
11:55 AM 75.0 °F 48.0 °F 38% 29.93 in 10.0 mi Calm Calm - N/A   Clear
12:55 PM 75.9 °F 48.0 °F 37% 29.93 in 10.0 mi SW 4.6 mph - N/A   Mostly Cloudy
1:55 PM 73.9 °F 48.0 °F 40% 29.93 in 10.0 mi SSE 4.6 mph - N/A   Overcast
2:55 PM 71.1 °F 55.0 °F 57% 29.94 in 10.0 mi North 3.5 mph - N/A   Overcast
3:55 PM 68.0 °F 55.0 °F 63% 29.99 in 10.0 mi SE 13.8 mph 20.7 mph 0.00 in   Overcast
4:55 PM 64.0 °F 57.0 °F 78% 29.99 in 10.0 mi SSE 8.1 mph - 0.01 in Rain Light Rain
5:55 PM 64.0 °F 57.9 °F 80% 29.98 in 10.0 mi SSE 6.9 mph - 0.00 in Rain Light Rain
6:55 PM 64.9 °F 55.9 °F 73% 29.91 in 10.0 mi North 9.2 mph - 0.00 in   Clear
7:55 PM 63.0 °F 55.9 °F 78% 29.89 in 10.0 mi West 5.8 mph - N/A   Overcast
8:55 PM 63.0 °F 57.0 °F 81% 29.90 in 10.0 mi North 3.5 mph - N/A   Overcast
9:55 PM 62.1 °F 57.0 °F 84% 29.90 in 10.0 mi Calm Calm - N/A   Overcast
10:55 PM 60.1 °F 55.9 °F 86% 29.90 in 10.0 mi SW 4.6 mph - N/A   Overcast
11:55 PM 61.0 °F 57.0 °F 87% 29.89 in 10.0 mi Calm Calm - N/A   Overcast